COSMOS 970 DEB

Satellite information

Favourite Embed

Satellite Type and Status

DEBRISIN ORBIT

Key statistics

Satellite COSMOS 970 DEB at a glance.

Uptime

17366

Days in orbit

Revolutions

≈ 13.8

Per day

Orbit

LEO

Low Earth Orbit

Inclination

65.8

Latest

Satellite identification and parameters

Extended collection of information and parameters for COSMOS 970 DEB.

Object identification

Identified? True

Debris? True

Object name: COSMOS 970 DEB

International designator: 1977-121AD

Object number (NORAD): 10882

Object ID (CCSDS): 10882

Country: COMMONWEALTH OF INDEPENDENT STATES (CIS)

Current information (Y/N): Y

RCS size: SMALL

Orbital parameters

Period: 104.564 minutes

Inclination: 65.8225 deg

SMA: 7352.142 km

Apoapsis: 1080.309 km

Periapsis: 867.706 km

RAAN: 170.0371 deg

Eccentricy: 0.0144586

Argument of periapsis: 291.1313 deg

Mean anomaly: 67.4348 deg

Mean motion: 13.77152068 rev/day

Mean motion (dot): 0.00000286 rev/day2

B* drag term: 0.00034337 1/REarth

Two-line elements (TLE)

Creation date: July 6, 2025, 6:05 p.m.

Reference frame: TEME

Reference center: EARTH

Epoch: July 6, 2025, 9:45 a.m. UTC

TLE line 0: 0 COSMOS 970 DEB

TLE line 1: 1 10882U 77121AD 25187.40648858 .00000286 00000-0 34337-3 0 9992

TLE line 2: 2 10882 65.8225 170.0371 0144586 291.1313 67.4348 13.77152068378770

Live tracking on map

Real-time ground track for satellite COSMOS 970 DEB.

In-orbit conjunctions

A list of the most updated potential collisions computed for object COSMOS 970 DEB.

Target Orbit TCA Probability of collision Miss distance Type
CZ-6A DEB LEO 2025-02-17 07:52:56 0.00032652 368.0 (m) DEBRIS
FENGYUN 1C DEB SSO 2025-01-06 02:55:24 0.0009202748 55.0 (m) DEBRIS
FENGYUN 1C DEB SSO 2024-11-11 13:56:45 0.0001781519 713.0 (m) DEBRIS

Associated space launch

Second generation ASAT satellite

COSMOS 970 DEB was lifted into orbit during the mission ‘Tsiklon-2 | IS-A 8’, on board a Tsiklon-2 space rocket.

The launch took place on Dec. 21, 1977, 10:35 a.m. from 90.

For more information about the launch, click the button.

Launch to space Tsiklon-2 | IS-A 8
Tsiklon-2 | IS-A 8

Agency: N/A

Status: Launch Successful

Launch date: Dec. 21, 1977, 10:35 a.m. UTC

Rocket: Tsiklon-2

Launch pad: 90

Location: Baikonur Cosmodrome, Republic of Kazakhstan

...

Latest news about this satellite

There are no fresh news available about this satellite. Check back as we update our databases every day.


Newsletter sign-up

Weekly statistics, charts and insights to help you stay on top of the space industry.